Time,TemperatureF,DewpointF,PressureIn,WindDirection,WindDirectionDegrees,WindSpeedMPH,WindSpeedGustMPH,Humidity,HourlyPrecipIn,Conditions,Clouds,dailyrainin,SoftwareType,DateUTC
2013-09-17 00:06:00,70.5,62.0,30.13,East,96,0.0,2.0,75,0.00,,,0.00,weatherlink.com 1.10,2013-09-17 04:06:00,
2013-09-17 00:21:00,70.3,62.0,30.13,NNE,12,0.0,3.0,75,0.00,,,0.00,weatherlink.com 1.10,2013-09-17 04:21:00,
2013-09-17 00:36:00,70.1,62.0,30.14,ENE,60,3.0,3.0,75,0.00,,,0.00,weatherlink.com 1.10,2013-09-17 04:36:00,
2013-09-17 00:51:00,69.8,62.0,30.14,East,95,0.0,2.0,76,0.00,,,0.00,weatherlink.com 1.10,2013-09-17 04:51:00,
2013-09-17 01:06:00,69.4,62.0,30.14,ENE,75,1.0,3.0,77,0.00,,,0.00,weatherlink.com 1.10,2013-09-17 05:06:00,
2013-09-17 01:21:00,69.0,62.0,30.14,ENE,59,2.0,4.0,78,0.00,,,0.00,weatherlink.com 1.10,2013-09-17 05:21:00,
2013-09-17 01:36:00,68.9,62.0,30.15,NE,34,0.0,3.0,78,0.00,,,0.00,weatherlink.com 1.10,2013-09-17 05:36:00,
2013-09-17 01:51:00,68.7,62.0,30.15,ESE,108,0.0,2.0,79,0.00,,,0.00,weatherlink.com 1.10,2013-09-17 05:51:00,
2013-09-17 02:06:00,68.6,62.0,30.15,NNE,21,0.0,5.0,78,0.00,,,0.00,weatherlink.com 1.10,2013-09-17 06:06:00,
2013-09-17 02:21:00,68.3,61.0,30.15,East,98,0.0,3.0,78,0.00,,,0.00,weatherlink.com 1.10,2013-09-17 06:21:00,
2013-09-17 02:36:00,68.1,61.0,30.16,ENE,66,0.0,3.0,79,0.00,,,0.00,weatherlink.com 1.10,2013-09-17 06:36:00,
2013-09-17 02:51:00,67.8,61.0,30.16,NW,321,0.0,4.0,79,0.00,,,0.00,weatherlink.com 1.10,2013-09-17 06:51:00,
2013-09-17 03:06:00,67.4,60.0,30.16,NNW,344,1.0,6.0,78,0.00,,,0.00,weatherlink.com 1.10,2013-09-17 07:06:00,
2013-09-17 03:21:00,67.2,60.0,30.16,North,4,0.0,5.0,77,0.00,,,0.00,weatherlink.com 1.10,2013-09-17 07:21:00,
2013-09-17 03:36:00,67.0,60.0,30.16,ENE,76,0.0,4.0,78,0.00,,,0.00,weatherlink.com 1.10,2013-09-17 07:36:00,
2013-09-17 03:51:00,66.4,59.0,30.17,NE,35,4.0,7.0,77,0.00,,,0.00,weatherlink.com 1.10,2013-09-17 07:51:00,
2013-09-17 04:06:00,66.0,59.0,30.17,NE,45,1.0,5.0,77,0.00,,,0.00,weatherlink.com 1.10,2013-09-17 08:06:00,
2013-09-17 04:21:00,65.6,58.0,30.17,ENE,69,2.0,5.0,76,0.00,,,0.00,weatherlink.com 1.10,2013-09-17 08:21:00,
2013-09-17 04:36:00,65.3,58.0,30.18,North,10,2.0,6.0,76,0.00,,,0.00,weatherlink.com 1.10,2013-09-17 08:36:00,
2013-09-17 04:51:00,65.0,58.0,30.19,NE,39,1.0,5.0,77,0.00,,,0.00,weatherlink.com 1.10,2013-09-17 08:51:00,
2013-09-17 05:06:00,64.7,58.0,30.19,ESE,104,0.0,5.0,78,0.00,,,0.00,weatherlink.com 1.10,2013-09-17 09:06:00,
2013-09-17 05:21:00,64.4,57.0,30.19,ENE,59,0.0,5.0,78,0.00,,,0.00,weatherlink.com 1.10,2013-09-17 09:21:00,
2013-09-17 05:36:00,64.1,57.0,30.20,NE,44,1.0,3.0,79,0.00,,,0.00,weatherlink.com 1.10,2013-09-17 09:36:00,
2013-09-17 05:51:00,64.1,58.0,30.20,North,359,4.0,4.0,80,0.00,,,0.00,weatherlink.com 1.10,2013-09-17 09:51:00,
2013-09-17 06:06:00,63.8,58.0,30.20,East,98,0.0,2.0,80,0.00,,,0.00,weatherlink.com 1.10,2013-09-17 10:06:00,
2013-09-17 06:21:00,63.4,57.0,30.20,East,80,0.0,3.0,80,0.00,,,0.00,weatherlink.com 1.10,2013-09-17 10:21:00,
2013-09-17 06:36:00,63.0,57.0,30.21,ENE,66,0.0,3.0,81,0.00,,,0.00,weatherlink.com 1.10,2013-09-17 10:36:00,
2013-09-17 06:51:00,62.7,57.0,30.21,NW,314,3.0,3.0,82,0.00,,,0.00,weatherlink.com 1.10,2013-09-17 10:51:00,
2013-09-17 07:06:00,62.4,57.0,30.22,NNE,26,0.0,6.0,82,0.00,,,0.00,weatherlink.com 1.10,2013-09-17 11:06:00,
2013-09-17 07:21:00,62.1,57.0,30.22,NNE,12,0.0,5.0,83,0.00,,,0.00,weatherlink.com 1.10,2013-09-17 11:21:00,
2013-09-17 07:36:00,62.1,57.0,30.23,ENE,67,0.0,4.0,83,0.00,,,0.00,weatherlink.com 1.10,2013-09-17 11:36:00,
2013-09-17 07:51:00,62.0,57.0,30.24,SSE,154,1.0,3.0,83,0.00,,,0.00,weatherlink.com 1.10,2013-09-17 11:51:00,
2013-09-17 08:06:00,62.2,57.0,30.24,NNE,12,1.0,4.0,83,0.00,,,0.00,weatherlink.com 1.10,2013-09-17 12:06:00,
2013-09-17 08:21:00,62.6,57.0,30.25,ENE,64,0.0,2.0,83,0.00,,,0.00,weatherlink.com 1.10,2013-09-17 12:21:00,
2013-09-17 08:36:00,63.0,57.0,30.25,NE,37,0.0,2.0,82,0.00,,,0.00,weatherlink.com 1.10,2013-09-17 12:36:00,
2013-09-17 08:51:00,63.1,57.0,30.26,East,93,2.0,5.0,81,0.00,,,0.00,weatherlink.com 1.10,2013-09-17 12:51:00,
2013-09-17 09:06:00,63.4,58.0,30.26,NE,35,4.0,5.0,81,0.00,,,0.00,weatherlink.com 1.10,2013-09-17 13:06:00,
2013-09-17 09:21:00,63.6,57.0,30.27,ENE,77,1.0,5.0,79,0.00,,,0.00,weatherlink.com 1.10,2013-09-17 13:21:00,
2013-09-17 09:37:00,64.0,57.0,30.27,NE,43,1.0,8.0,77,0.00,,,0.00,weatherlink.com 1.10,2013-09-17 13:37:00,
2013-09-17 09:52:00,64.3,57.0,30.28,NE,38,1.0,7.0,77,0.00,,,0.00,weatherlink.com 1.10,2013-09-17 13:52:00,
2013-09-17 10:07:00,65.2,57.0,30.28,ENE,62,0.0,3.0,76,0.00,,,0.00,weatherlink.com 1.10,2013-09-17 14:07:00,
2013-09-17 10:22:00,66.0,57.0,30.28,North,354,0.0,6.0,73,0.00,,,0.00,weatherlink.com 1.10,2013-09-17 14:22:00,
2013-09-17 10:37:00,66.2,56.0,30.28,NE,56,1.0,8.0,70,0.00,,,0.00,weatherlink.com 1.10,2013-09-17 14:37:00,
2013-09-17 10:52:00,66.5,57.0,30.28,ENE,67,0.0,5.0,71,0.00,,,0.00,weatherlink.com 1.10,2013-09-17 14:52:00,
2013-09-17 11:07:00,66.4,57.0,30.28,East,92,1.0,5.0,71,0.00,,,0.00,weatherlink.com 1.10,2013-09-17 15:07:00,
2013-09-17 11:22:00,68.1,58.0,30.28,NW,306,3.0,7.0,70,0.00,,,0.00,weatherlink.com 1.10,2013-09-17 15:22:00,
2013-09-17 11:37:00,68.6,57.0,30.28,SE,133,3.0,9.0,67,0.00,,,0.00,weatherlink.com 1.10,2013-09-17 15:37:00,
2013-09-17 11:52:00,68.9,57.0,30.27,NNW,339,2.0,6.0,67,0.00,,,0.00,weatherlink.com 1.10,2013-09-17 15:52:00,
2013-09-17 12:07:00,68.8,58.0,30.27,ESE,115,2.0,6.0,68,0.00,,,0.00,weatherlink.com 1.10,2013-09-17 16:07:00,
2013-09-17 12:22:00,68.7,57.0,30.27,NNE,18,1.0,6.0,67,0.00,,,0.00,weatherlink.com 1.10,2013-09-17 16:22:00,
2013-09-17 12:37:00,69.5,57.0,30.27,SE,129,2.0,7.0,65,0.00,,,0.00,weatherlink.com 1.10,2013-09-17 16:37:00,
2013-09-17 12:52:00,69.9,58.0,30.27,SE,126,2.0,7.0,65,0.00,,,0.00,weatherlink.com 1.10,2013-09-17 16:52:00,
2013-09-17 13:07:00,69.3,57.0,30.26,ENE,64,2.0,5.0,66,0.00,,,0.00,weatherlink.com 1.10,2013-09-17 17:07:00,
2013-09-17 13:22:00,69.4,58.0,30.26,ESE,122,0.0,3.0,67,0.00,,,0.00,weatherlink.com 1.10,2013-09-17 17:22:00,
2013-09-17 13:37:00,69.7,58.0,30.25,SE,137,3.0,5.0,67,0.00,,,0.00,weatherlink.com 1.10,2013-09-17 17:37:00,
2013-09-17 13:52:00,69.4,57.0,30.25,SSE,157,0.0,4.0,66,0.00,,,0.00,weatherlink.com 1.10,2013-09-17 17:52:00,
2013-09-17 14:07:00,69.6,58.0,30.25,North,11,0.0,3.0,67,0.00,,,0.00,weatherlink.com 1.10,2013-09-17 18:07:00,
2013-09-17 14:22:00,69.5,58.0,30.24,NNE,33,1.0,4.0,67,0.00,,,0.00,weatherlink.com 1.10,2013-09-17 18:22:00,
2013-09-17 14:37:00,69.4,59.0,30.24,NNE,27,2.0,3.0,69,0.00,,,0.00,weatherlink.com 1.10,2013-09-17 18:37:00,
2013-09-17 14:52:00,69.5,58.0,30.23,NE,38,1.0,4.0,66,0.00,,,0.00,weatherlink.com 1.10,2013-09-17 18:52:00,
2013-09-17 15:07:00,69.9,57.0,30.23,SE,141,2.0,7.0,63,0.00,,,0.00,weatherlink.com 1.10,2013-09-17 19:07:00,
2013-09-17 15:22:00,70.2,56.0,30.23,SE,133,2.0,5.0,62,0.00,,,0.00,weatherlink.com 1.10,2013-09-17 19:22:00,
2013-09-17 15:37:00,70.3,57.0,30.22,SSE,148,4.0,6.0,63,0.00,,,0.00,weatherlink.com 1.10,2013-09-17 19:37:00,
2013-09-17 15:52:00,70.3,57.0,30.22,SE,144,2.0,6.0,62,0.00,,,0.00,weatherlink.com 1.10,2013-09-17 19:52:00,
2013-09-17 16:07:00,71.2,57.0,30.21,East,83,3.0,4.0,62,0.00,,,0.00,weatherlink.com 1.10,2013-09-17 20:07:00,
2013-09-17 16:22:00,71.2,57.0,30.21,NNE,29,4.0,8.0,62,0.00,,,0.00,weatherlink.com 1.10,2013-09-17 20:22:00,
2013-09-17 16:37:00,71.2,59.0,30.21,NE,35,1.0,3.0,65,0.00,,,0.00,weatherlink.com 1.10,2013-09-17 20:37:00,
2013-09-17 16:52:00,71.0,59.0,30.20,SE,139,1.0,4.0,67,0.00,,,0.00,weatherlink.com 1.10,2013-09-17 20:52:00,
2013-09-17 17:07:00,70.4,59.0,30.20,East,97,0.0,2.0,67,0.00,,,0.00,weatherlink.com 1.10,2013-09-17 21:07:00,
2013-09-17 17:22:00,71.2,58.0,30.20,East,91,0.0,3.0,64,0.00,,,0.00,weatherlink.com 1.10,2013-09-17 21:22:00,
2013-09-17 17:37:00,71.9,59.0,30.20,NNE,24,1.0,5.0,64,0.00,,,0.00,weatherlink.com 1.10,2013-09-17 21:37:00,
2013-09-17 17:52:00,71.4,59.0,30.20,SSE,156,0.0,5.0,65,0.00,,,0.00,weatherlink.com 1.10,2013-09-17 21:52:00,
2013-09-17 18:07:00,71.4,59.0,30.20,ENE,73,0.0,4.0,66,0.00,,,0.00,weatherlink.com 1.10,2013-09-17 22:07:00,
2013-09-17 18:22:00,70.8,60.0,30.19,South,170,1.0,3.0,68,0.00,,,0.00,weatherlink.com 1.10,2013-09-17 22:22:00,
2013-09-17 18:37:00,70.3,60.0,30.20,NNE,28,1.0,3.0,69,0.00,,,0.00,weatherlink.com 1.10,2013-09-17 22:37:00,
2013-09-17 18:52:00,68.9,59.0,30.20,East,81,1.0,3.0,71,0.00,,,0.00,weatherlink.com 1.10,2013-09-17 22:52:00,
2013-09-17 19:07:00,67.7,59.0,30.19,North,8,0.0,3.0,74,0.00,,,0.00,weatherlink.com 1.10,2013-09-17 23:07:00,
2013-09-17 19:22:00,66.8,59.0,30.19,NE,45,0.0,3.0,76,0.00,,,0.00,weatherlink.com 1.10,2013-09-17 23:22:00,
2013-09-17 19:37:00,66.5,59.0,30.20,NE,45,0.0,1.0,78,0.00,,,0.00,weatherlink.com 1.10,2013-09-17 23:37:00,
2013-09-17 19:52:00,66.0,60.0,30.20,NE,45,0.0,2.0,80,0.00,,,0.00,weatherlink.com 1.10,2013-09-17 23:52:00,
2013-09-17 20:07:00,65.8,60.0,30.20,ENE,62,0.0,2.0,80,0.00,,,0.00,weatherlink.com 1.10,2013-09-18 00:07:00,
2013-09-17 20:22:00,65.6,59.0,30.20,East,95,0.0,2.0,80,0.00,,,0.00,weatherlink.com 1.10,2013-09-18 00:22:00,
2013-09-17 20:37:00,65.3,59.0,30.21,NE,40,0.0,2.0,81,0.00,,,0.00,weatherlink.com 1.10,2013-09-18 00:37:00,
2013-09-17 20:52:00,65.0,59.0,30.22,NE,40,1.0,1.0,82,0.00,,,0.00,weatherlink.com 1.10,2013-09-18 00:52:00,
2013-09-17 21:07:00,64.8,59.0,30.22,ENE,73,0.0,3.0,82,0.00,,,0.00,weatherlink.com 1.10,2013-09-18 01:07:00,
2013-09-17 21:22:00,64.7,59.0,30.23,ESE,109,0.0,3.0,81,0.00,,,0.00,weatherlink.com 1.10,2013-09-18 01:22:00,
2013-09-17 21:37:00,64.7,59.0,30.23,NNE,31,0.0,2.0,81,0.00,,,0.00,weatherlink.com 1.10,2013-09-18 01:37:00,
2013-09-17 21:52:00,64.7,59.0,30.23,NNE,29,0.0,2.0,81,0.00,,,0.00,weatherlink.com 1.10,2013-09-18 01:52:00,
2013-09-17 22:07:00,64.6,58.0,30.23,ENE,70,0.0,3.0,80,0.00,,,0.00,weatherlink.com 1.10,2013-09-18 02:07:00,
2013-09-17 22:22:00,64.5,58.0,30.23,NE,56,0.0,3.0,80,0.00,,,0.00,weatherlink.com 1.10,2013-09-18 02:22:00,
2013-09-17 22:37:00,64.5,58.0,30.23,ENE,58,0.0,2.0,80,0.00,,,0.00,weatherlink.com 1.10,2013-09-18 02:37:00,
2013-09-17 22:52:00,64.3,58.0,30.24,NE,40,0.0,2.0,80,0.00,,,0.00,weatherlink.com 1.10,2013-09-18 02:52:00,
2013-09-17 23:07:00,64.2,58.0,30.24,NE,52,2.0,3.0,80,0.00,,,0.00,weatherlink.com 1.10,2013-09-18 03:07:00,
2013-09-17 23:22:00,64.1,58.0,30.24,East,81,0.0,2.0,81,0.00,,,0.00,weatherlink.com 1.10,2013-09-18 03:22:00,
2013-09-17 23:37:00,64.1,59.0,30.24,East,81,0.0,1.0,82,0.00,,,0.00,weatherlink.com 1.10,2013-09-18 03:37:00,
2013-09-17 23:53:00,63.9,58.0,30.24,ESE,123,0.0,2.0,82,0.00,,,0.00,weatherlink.com 1.10,2013-09-18 03:53:00,